{"data":{"norad_id":66560,"epoch":"2026-09-20T12:07:21.411552Z","epoch_age_seconds":88879,"freshness":"FRESH","line1":"1 66560U 25268D   26263.50510893  .00009380  00000+0  34988-3 0  9990","line2":"2 66560  43.0049 326.9041 0001793 280.1545  79.9104 15.27587877 47755","mean_motion":15.27587877,"eccentricity":0.0001793,"inclination_deg":43.0049,"raan_deg":326.9041,"arg_perigee_deg":280.1545,"mean_anomaly_deg":79.9104,"bstar":0.00034988,"rev_number":4775,"period_min":94.266262627587,"perigee_km":481.79530313131,"apogee_km":484.25571600724,"semimajor_km":6861.1625095693,"source":"CELESTRAK","updated_at":"2026-09-21T09:00:35.970003Z"}}